Weather observations for the past three days for
Mason City Municipal Airport
Imperial (Metric)
Date Time (cdt) Wind (mph) Vis. (mi.) Weather Sky Cond. Temperature (ºF) Relative Humidity Wind Chill (°F) Heat Index (°F) Pressure Precipitation (in)
Air Dwpt 6 hour altimeter (in) sea level (mb) 1 hr 3 hr 6 hr
Max. Min.
16 17:53 S 18 G 30 10.00 Fair CLR 88 72 59% 95 29.69 1003.9
16 16:53 S 21 G 30 10.00 Fair and Breezy CLR 88 71.1 57% 94 29.69 1003.9
16 15:53 SW 15 G 30 10.00 A Few Clouds FEW042 88 71.1 57% 94 29.7 1004.2
16 14:53 SW 18 G 32 10.00 Mostly Cloudy BKN043 88 71.1 57% 94 29.71 1004.4
16 13:53 SW 22 G 32 10.00 Partly Cloudy and Breezy SCT038 86 71.1 61% 92 29.71 1004.6
16 12:53 S 21 G 31 10.00 Fair and Breezy CLR 84 69.1 84.9 68 61% 88 29.72 1005.0
16 11:53 S 20 G 32 10.00 Fair CLR 82.9 69.1 63% 87 29.73 1005.2
16 10:53 S 22 G 32 10.00 Fair and Breezy CLR 80.1 69.1 69% 83 29.73 1005.4
16 09:53 S 17 G 29 10.00 Fair CLR 75.9 69.1 79% 77 29.75 1005.9
16 08:53 S 14 10.00 Fair CLR 73 68 84% 29.75 1006.0
16 07:53 S 9 10.00 Overcast OVC060 68 66 93% 29.75 1006.0
16 06:53 S 15 G 24 10.00 Mostly Cloudy BKN060 68 66 73.9 66.9 93% 29.72 1005.1 0.44
16 05:53 S 18 G 31 6.00 Thunderstorm Light Rain Fog/Mist SCT025 OVC065 68 66 93% 29.73 1005.5 0.29
16 04:53 S 16 9.00 Light Rain FEW080 BKN110 66.9 66 97% 29.72 1005.2 0.14
16 03:53 S 10 10.00 Light Rain FEW044 BKN055 OVC070 66.9 64.9 93% 29.76 1006.5 0.01 0.01
16 02:53 S 13 10.00 Fair CLR 68 62.1 81% 29.75 1006.3
16 01:53 S 14 10.00 Mostly Cloudy BKN120 71.1 61 71% 29.76 1006.7
16 00:53 S 16 G 25 10.00 A Few Clouds FEW120 73.9 61 78.1 73.9 64% 29.78 1007.3
15 23:53 S 21 G 35 10.00 A Few Clouds and Breezy FEW040 75 61 62% 77 29.76 1006.5
15 22:53 S 18 G 33 10.00 A Few Clouds FEW120 75 60.1 60% 77 29.77 1006.7
15 21:53 S 18 G 28 10.00 Mostly Cloudy BKN110 75.9 60.1 58% 78 29.77 1006.9
15 20:53 S 16 G 25 10.00 Overcast FEW070 BKN090 OVC110 75.9 59 56% 78 29.79 1007.4
15 19:53 S 13 10.00 Overcast FEW095 OVC120 77 55.9 48% 79 29.8 1007.9
15 18:53 S 15 G 26 10.00 A Few Clouds FEW100 78.1 57 82 66.9 48% 79 29.82 1008.5 0.04
15 17:53 S 22 G 32 10.00 Partly Cloudy and Breezy SCT090 78.1 57.9 50% 79 29.84 1009.1
15 16:53 S 18 G 32 10.00 Mostly Cloudy BKN055 79 55.9 45% 80 29.85 1009.7
15 15:53 S 20 G 31 10.00 Mostly Cloudy SCT065 BKN110 81 57 44% 81 29.88 1010.4 0.04
15 14:53 S 23 G 32 10.00 A Few Clouds and Breezy FEW110 75.9 57.9 54% 78 29.91 1011.6
15 13:53 SE 12 10.00 A Few Clouds FEW085 69.1 61 76% 29.94 1012.6 0.04
15 12:53 S 14 9.00 Light Rain SCT090 OVC110 68 60.1 72 64.9 76% 29.97 1014.1 0.01 0.01
15 11:53 SE 21 G 31 10.00 Overcast and Breezy FEW070 BKN085 OVC110 72 55 55% 29.95 1013.3
15 10:53 SE 20 G 37 10.00 Overcast FEW055 FEW090 OVC110 72 55 55% 29.96 1013.3
15 09:53 S 20 G 30 10.00 Fair CLR 71.1 55.9 59% 30 1014.7
15 08:53 S 15 10.00 A Few Clouds FEW120 68 55.9 65% 30.04 1016.3
15 07:53 S 13 10.00 A Few Clouds FEW110 66 55.9 70% 30.08 1017.4
15 06:53 SE 9 10.00 Fair CLR 66 55 68 64 68% 30.06 1016.8
15 05:53 SE 9 10.00 Fair CLR 64.9 55 70% 30.06 1016.9
15 04:53 SE 6 10.00 Mostly Cloudy FEW050 SCT065 BKN120 64.9 55.9 73% 30.07 1017.3
15 03:53 SE 8 10.00 Light Rain BKN110 64.9 55.9 73% 30.05 1016.2
15 02:53 SE 5 10.00 Mostly Cloudy FEW075 BKN120 66 54 65% 30.08 1017.3
15 01:53 SE 9 10.00 A Few Clouds FEW120 68 53.1 59% 30.06 1016.7
15 00:53 SE 7 10.00 Fair CLR 68 53.1 77 66.9 59% 30.06 1016.5
14 23:53 SE 7 10.00 Fair CLR 68 53.1 59% 30.07 1017.0
14 22:53 E 7 10.00 Fair CLR 69.1 54 59% 30.05 1016.5
14 21:53 E 6 10.00 Fair CLR 69.1 55 61% 30.06 1016.7
14 20:53 E 5 10.00 Fair CLR 71.1 55.9 59% 30.05 1016.6
14 19:53 SE 3 10.00 Fair CLR 75 54 48% 78 30.06 1016.9
14 18:53 Calm 10.00 Fair CLR 77 50 81 75.9 39% 78 30.07 1017.1
14 17:53 N 7 10.00 Fair CLR 77 50 39% 78 30.07 1017.4
14 16:53 NW 7 10.00 Fair CLR 79 51.1 38% 79 30.07 1017.4
14 15:53 N 12 G 16 10.00 Fair CLR 81 51.1 35% 80 30.08 1017.5
14 14:53 N 9 10.00 Fair CLR 80.1 52 38% 80 30.09 1017.8
14 13:53 Calm 10.00 Fair CLR 79 51.1 38% 79 30.09 1018.0
14 12:53 N 17 G 29 10.00 Fair CLR 79 52 79 60.1 39% 79 30.1 1018.3
14 11:53 NW 14 10.00 Fair CLR 77 51.1 40% 78 30.11 1018.4
14 10:53 N 15 10.00 Fair CLR 75.9 51.1 42% 78 30.11 1018.7
14 09:53 NW 13 10.00 Fair CLR 73.9 52 46% 30.1 1018.2
14 08:53 N 13 10.00 Fair CLR 73 53.1 50% 30.11 1018.3
14 07:53 NW 6 10.00 Fair CLR 68 54 61% 30.1 1018.0
14 06:53 W 6 10.00 Fair CLR 60.1 54 61 53.1 80% 30.08 1017.4
14 05:53 NW 8 10.00 Fair CLR 54 50 87% 30.08 1017.4
14 04:53 W 8 10.00 Fair CLR 54 50 87% 30.05 1016.8
14 03:53 W 7 10.00 Fair CLR 55.9 51.1 84% 30.04 1016.3
14 02:53 NW 6 10.00 Fair CLR 57 52 83% 30.03 1016.0
14 01:53 W 10 10.00 Fair CLR 60.1 55.9 86% 30.02 1015.5
14 00:53 W 6 10.00 Fair CLR 60.1 55.9 81 60.1 86% 30 1014.7
13 23:53 SW 3 10.00 Fair CLR 61 55.9 84% 29.98 1014.2
13 22:53 Calm 10.00 Fair CLR 63 57 81% 29.96 1013.6
13 21:53 NW 3 10.00 Fair CLR 66.9 57 71% 29.95 1012.9
13 19:53 N 12 10.00 Fair CLR 75.9 55 48% 78 29.93 1012.0
13 18:53 N 14 10.00 Fair CLR 81 59 82.9 73 47% 81 29.91 1011.6
Date Time (cdt) Wind (mph) Vis. (mi.) Weather Sky Cond. Air Dwpt Max. Min. Relative Humidity Wind Chill (°F) Heat Index (°F) altimeter (in) sea level (mb) 1 hr 3 hr 6 hr
6 hour
Temperature (ºF) Pressure Precipitation (in)